AAY1139 KPIE-KPIT

Flight info

Callsign AAY1139
Flight time 1h 54m
Altitude 37000
Route BAYPO2 CAMJO Q99 BLAAN Q69 RICCS LEJOY DEMME5
Aircraft A339/H-SADE1E2E3GHIJ3J5M1P2RWXY/LB2D1

Departure

Time 2026-04-25 22:02
Airport St. Petersburg Clearwater International Airport (KPIE)

Arrival

Time 2026-04-25 23:57
Airport Pittsburgh International Airport (KPIT)
Time Latitude Longitude Altitude Speed Heading
2026-04-25 21:55 27.90760 -82.69066 26 ft 0 kts 181°
2026-04-25 21:56 27.90767 -82.69065 26 ft 2 kts 180°
2026-04-25 21:57 27.90801 -82.69069 31 ft 6 kts 159°
2026-04-25 21:57 27.90828 -82.69084 32 ft 0 kts 104°
2026-04-25 21:57 27.90831 -82.69088 30 ft 0 kts 89°
2026-04-25 21:58 27.90831 -82.69087 30 ft 1 kts 89°
2026-04-25 21:59 27.90831 -82.69051 26 ft 6 kts 89°
2026-04-25 21:59 27.90831 -82.69014 26 ft 5 kts 90°
2026-04-25 21:59 27.90797 -82.68976 26 ft 11 kts 152°
2026-04-25 22:00 27.90623 -82.68928 27 ft 14 kts 171°
2026-04-25 22:00 27.90515 -82.68910 27 ft 14 kts 171°
2026-04-25 22:00 27.90439 -82.68897 27 ft 9 kts 171°
2026-04-25 22:00 27.90369 -82.68886 26 ft 11 kts 172°
2026-04-25 22:01 27.90309 -82.68847 26 ft 10 kts 122°
2026-04-25 22:01 27.90303 -82.68776 27 ft 10 kts 84°
2026-04-25 22:01 27.90336 -82.68742 27 ft 5 kts 18°
2026-04-25 22:01 27.90360 -82.68738 27 ft 0 kts 360°
2026-04-25 22:02 27.90480 -82.68755 28 ft 53 kts 353°
2026-04-25 22:02 27.91139 -82.68873 25 ft 136 kts 352°
2026-04-25 22:02 27.92264 -82.69070 135 ft 185 kts 349°
2026-04-25 22:02 27.93558 -82.69267 791 ft 195 kts 352°
2026-04-25 22:03 27.94972 -82.69201 879 ft 219 kts
2026-04-25 22:03 27.96516 -82.68779 1222 ft 247 kts 10°
2026-04-25 22:03 27.98273 -82.68355 1203 ft 255 kts 19°
2026-04-25 22:03 27.99837 -82.67620 1276 ft 232 kts 19°
2026-04-25 22:04 28.01389 -82.67190 1162 ft 233 kts
2026-04-25 22:04 28.03058 -82.67219 1314 ft 249 kts 354°
2026-04-25 22:04 28.04845 -82.67451 1790 ft 264 kts 351°
2026-04-25 22:04 28.06661 -82.67684 2510 ft 268 kts 353°
2026-04-25 22:05 28.08546 -82.67686 3103 ft 274 kts
2026-04-25 22:05 28.10463 -82.67631 3849 ft 276 kts
2026-04-25 22:05 28.12386 -82.67572 4599 ft 279 kts
2026-04-25 22:05 28.14287 -82.67030 5279 ft 282 kts 19°
2026-04-25 22:06 28.16135 -82.66214 6038 ft 285 kts 22°
2026-04-25 22:06 28.17980 -82.65365 6687 ft 288 kts 21°
2026-04-25 22:06 28.19854 -82.64537 7428 ft 288 kts 19°
2026-04-25 22:06 28.21728 -82.63762 8131 ft 290 kts 18°
2026-04-25 22:07 28.23631 -82.63004 8854 ft 291 kts 17°
2026-04-25 22:07 28.24922 -82.62495 9322 ft 292 kts 17°
2026-04-25 22:07 28.27475 -82.61504 10217 ft 295 kts 17°
2026-04-25 22:07 28.29482 -82.60726 10447 ft 314 kts 17°
2026-04-25 22:08 28.31617 -82.59895 10650 ft 334 kts 17°
2026-04-25 22:08 28.33853 -82.59021 11045 ft 342 kts 17°
2026-04-25 22:08 28.36164 -82.58347 11665 ft 342 kts
2026-04-25 22:08 28.38538 -82.58089 12323 ft 341 kts 359°
2026-04-25 22:09 28.40910 -82.58161 12977 ft 342 kts 355°
2026-04-25 22:09 28.43273 -82.58243 13576 ft 344 kts 355°
2026-04-25 22:09 28.45678 -82.58311 14161 ft 346 kts 356°
2026-04-25 22:09 28.48097 -82.58371 14662 ft 349 kts 356°
2026-04-25 22:10 28.50540 -82.58431 15196 ft 352 kts 356°
2026-04-25 22:10 28.52998 -82.58491 15726 ft 355 kts 356°
2026-04-25 22:10 28.55448 -82.58554 16246 ft 357 kts 356°
2026-04-25 22:10 28.57943 -82.58619 16751 ft 360 kts 356°
2026-04-25 22:11 28.60460 -82.58679 17235 ft 364 kts 356°
2026-04-25 22:11 28.63002 -82.58747 17752 ft 366 kts 356°
2026-04-25 22:11 28.65557 -82.58811 18236 ft 369 kts 356°
2026-04-25 22:11 28.68123 -82.58975 18636 ft 370 kts 351°
2026-04-25 22:12 28.70696 -82.59351 19073 ft 373 kts 350°
2026-04-25 22:12 28.73284 -82.59719 19502 ft 376 kts 350°
2026-04-25 22:12 28.75889 -82.60085 19933 ft 379 kts 351°
2026-04-25 22:12 28.77631 -82.60326 20221 ft 381 kts 351°
2026-04-25 22:13 28.81176 -82.60815 20817 ft 385 kts 351°
2026-04-25 22:13 28.83851 -82.61185 21270 ft 389 kts 351°
2026-04-25 22:13 28.86519 -82.61554 21710 ft 392 kts 351°
2026-04-25 22:13 28.89237 -82.61935 22150 ft 395 kts 351°
2026-04-25 22:14 28.91978 -82.62322 22621 ft 398 kts 351°
2026-04-25 22:14 28.94753 -82.62710 23060 ft 402 kts 351°
2026-04-25 22:14 28.97543 -82.63102 23515 ft 405 kts 351°
2026-04-25 22:14 29.00361 -82.63497 23917 ft 408 kts 351°
2026-04-25 22:15 29.03151 -82.63888 24334 ft 410 kts 351°
2026-04-25 22:15 29.05988 -82.64283 24755 ft 413 kts 351°
2026-04-25 22:15 29.08848 -82.64685 25147 ft 415 kts 351°
2026-04-25 22:16 29.14633 -82.65495 25957 ft 420 kts 350°
2026-04-25 22:16 29.17546 -82.65904 26334 ft 423 kts 350°
2026-04-25 22:16 29.20473 -82.66316 26721 ft 425 kts 350°
2026-04-25 22:16 29.23425 -82.66731 27084 ft 428 kts 350°
2026-04-25 22:17 29.26389 -82.67148 27466 ft 430 kts 350°
2026-04-25 22:17 29.29367 -82.67567 27838 ft 433 kts 350°
2026-04-25 22:17 29.32367 -82.67991 28178 ft 436 kts 350°
2026-04-25 22:17 29.35343 -82.68410 28526 ft 438 kts 350°
2026-04-25 22:18 29.38395 -82.68840 28886 ft 440 kts 350°
2026-04-25 22:18 29.41453 -82.69243 29212 ft 444 kts 353°
2026-04-25 22:18 29.44559 -82.69325 29529 ft 449 kts 358°
2026-04-25 22:18 29.47696 -82.69283 29870 ft 451 kts 357°
2026-04-25 22:19 29.50844 -82.69258 30200 ft 453 kts 357°
2026-04-25 22:19 29.54000 -82.69239 30518 ft 454 kts 357°
2026-04-25 22:19 29.57168 -82.69221 30831 ft 457 kts 357°
2026-04-25 22:19 29.60355 -82.69203 31155 ft 458 kts 357°
2026-04-25 22:20 29.63515 -82.69185 31487 ft 460 kts 357°
2026-04-25 22:20 29.66731 -82.69165 31788 ft 462 kts 357°
2026-04-25 22:20 29.69960 -82.69145 32101 ft 464 kts 357°
2026-04-25 22:20 29.73198 -82.69124 32384 ft 466 kts 357°
2026-04-25 22:21 29.76442 -82.69104 32664 ft 467 kts 357°
2026-04-25 22:21 29.79699 -82.69083 32867 ft 469 kts 357°
2026-04-25 22:21 29.82973 -82.69063 33099 ft 470 kts 357°
2026-04-25 22:21 29.86203 -82.69043 33245 ft 471 kts 357°
2026-04-25 22:22 29.89489 -82.69021 33458 ft 472 kts 357°
2026-04-25 22:22 29.92770 -82.68999 33668 ft 472 kts 357°
2026-04-25 22:22 29.96051 -82.68977 33900 ft 471 kts 357°
2026-04-25 22:22 29.99332 -82.68957 34111 ft 470 kts 357°
2026-04-25 22:23 30.02608 -82.68937 34312 ft 469 kts 357°
2026-04-25 22:23 30.05870 -82.68917 34532 ft 468 kts 357°
2026-04-25 22:23 30.09128 -82.68897 34733 ft 468 kts 357°
2026-04-25 22:23 30.12380 -82.68877 34929 ft 467 kts 356°
2026-04-25 22:24 30.15625 -82.68856 35139 ft 466 kts 356°
2026-04-25 22:24 30.18874 -82.68836 35323 ft 465 kts 356°
2026-04-25 22:24 30.22109 -82.68816 35525 ft 465 kts 356°
2026-04-25 22:24 30.25297 -82.68796 35713 ft 464 kts 356°
2026-04-25 22:25 30.28524 -82.68776 35906 ft 463 kts 356°
2026-04-25 22:25 30.31740 -82.68756 36101 ft 462 kts 356°
2026-04-25 22:25 30.34960 -82.68735 36284 ft 462 kts 356°
2026-04-25 22:25 30.38169 -82.68715 36472 ft 461 kts 356°
2026-04-25 22:26 30.41374 -82.68695 36666 ft 460 kts 356°
2026-04-25 22:26 30.44573 -82.68675 36878 ft 460 kts 356°
2026-04-25 22:26 30.47772 -82.68655 36917 ft 459 kts 356°
2026-04-25 22:27 30.54154 -82.67963 36923 ft 464 kts
2026-04-25 22:27 30.60513 -82.66575 36929 ft 464 kts
2026-04-25 22:28 30.66830 -82.65239 36923 ft 464 kts
2026-04-25 22:28 30.73187 -82.63888 36929 ft 464 kts
2026-04-25 22:29 30.79539 -82.62531 36907 ft 462 kts
2026-04-25 22:29 30.85860 -82.61179 36884 ft 461 kts
2026-04-25 22:30 30.94300 -82.59372 36906 ft 465 kts
2026-04-25 22:30 31.00654 -82.58007 36912 ft 464 kts
2026-04-25 22:31 31.06978 -82.56431 36907 ft 468 kts 12°
2026-04-25 22:31 31.13082 -82.53629 36886 ft 475 kts 22°
2026-04-25 22:32 31.18915 -82.50061 36872 ft 475 kts 23°
2026-04-25 22:32 31.24791 -82.46508 36880 ft 474 kts 23°
2026-04-25 22:33 31.30651 -82.42952 36873 ft 474 kts 23°
2026-04-25 22:33 31.36499 -82.39391 36867 ft 474 kts 23°
2026-04-25 22:34 31.42317 -82.35842 36858 ft 474 kts 24°
2026-04-25 22:34 31.48176 -82.32263 36862 ft 475 kts 24°
2026-04-25 22:35 31.54039 -82.28677 36864 ft 475 kts 24°
2026-04-25 22:35 31.59899 -82.25087 36861 ft 475 kts 24°
2026-04-25 22:36 31.65729 -82.21511 36863 ft 475 kts 24°
2026-04-25 22:36 31.71602 -82.17904 36863 ft 476 kts 24°
2026-04-25 22:37 31.77473 -82.14292 36859 ft 476 kts 24°
2026-04-25 22:37 31.83349 -82.10673 36862 ft 476 kts 24°
2026-04-25 22:38 31.89181 -82.07074 36869 ft 476 kts 24°
2026-04-25 22:38 31.95061 -82.03441 36871 ft 476 kts 24°
2026-04-25 22:39 32.00924 -81.99815 36873 ft 476 kts 24°
2026-04-25 22:39 32.06801 -81.96174 36867 ft 476 kts 24°
2026-04-25 22:40 32.12666 -81.92535 36869 ft 476 kts 24°
2026-04-25 22:40 32.18520 -81.88977 36866 ft 475 kts 23°
2026-04-25 22:41 32.24457 -81.85537 36870 ft 475 kts 22°
2026-04-25 22:41 32.30393 -81.82075 36865 ft 475 kts 23°
2026-04-25 22:42 32.36321 -81.78592 36856 ft 476 kts 23°
2026-04-25 22:42 32.42248 -81.75100 36854 ft 475 kts 23°
2026-04-25 22:43 32.48164 -81.71611 36854 ft 475 kts 23°
2026-04-25 22:43 32.54039 -81.68140 36850 ft 474 kts 23°
2026-04-25 22:44 32.59947 -81.64645 36877 ft 474 kts 23°
2026-04-25 22:44 32.65852 -81.61146 36877 ft 474 kts 23°
2026-04-25 22:45 32.71751 -81.57645 36876 ft 473 kts 24°
2026-04-25 22:45 32.77649 -81.54141 36873 ft 473 kts 24°
2026-04-25 22:46 32.83491 -81.50665 36866 ft 472 kts 24°
2026-04-25 22:46 32.89372 -81.47159 36858 ft 472 kts 24°
2026-04-25 22:47 32.95245 -81.43653 36863 ft 472 kts 24°
2026-04-25 22:47 33.01130 -81.40135 36864 ft 472 kts 24°
2026-04-25 22:48 33.06972 -81.36638 36867 ft 471 kts 24°
2026-04-25 22:48 33.12844 -81.33117 36869 ft 471 kts 24°
2026-04-25 22:49 33.18711 -81.29595 36877 ft 471 kts 24°
2026-04-25 22:49 33.24524 -81.26098 36875 ft 470 kts 24°
2026-04-25 22:50 33.30371 -81.22576 36874 ft 470 kts 24°
2026-04-25 22:50 33.36210 -81.19053 36870 ft 469 kts 24°
2026-04-25 22:51 33.42035 -81.15534 36855 ft 469 kts 24°
2026-04-25 22:51 33.47855 -81.12013 36851 ft 468 kts 24°
2026-04-25 22:52 33.53639 -81.08508 36844 ft 468 kts 24°
2026-04-25 22:52 33.58465 -81.05580 36845 ft 467 kts 24°
2026-04-25 22:53 33.65257 -81.01452 36846 ft 467 kts 24°
2026-04-25 22:53 33.71028 -80.97938 36843 ft 467 kts 24°
2026-04-25 22:54 33.76823 -80.94406 36842 ft 467 kts 24°
2026-04-25 22:54 33.82656 -80.90975 36829 ft 465 kts 20°
2026-04-25 22:55 33.88809 -80.88692 36830 ft 461 kts
2026-04-25 22:55 33.95085 -80.87510 36826 ft 459 kts
2026-04-25 22:56 34.01411 -80.86363 36831 ft 459 kts
2026-04-25 22:56 34.07729 -80.85216 36884 ft 458 kts
2026-04-25 22:57 34.14044 -80.84075 36877 ft 459 kts
2026-04-25 22:57 34.20322 -80.82940 36873 ft 458 kts
2026-04-25 22:58 34.26619 -80.81800 36871 ft 457 kts
2026-04-25 22:58 34.32901 -80.80661 36869 ft 456 kts
2026-04-25 22:59 34.39180 -80.79522 36868 ft 455 kts
2026-04-25 22:59 34.45413 -80.78388 36860 ft 455 kts
2026-04-25 23:00 34.51682 -80.77246 36889 ft 454 kts
2026-04-25 23:00 34.57935 -80.76106 36904 ft 454 kts
2026-04-25 23:01 34.64180 -80.74964 36916 ft 453 kts
2026-04-25 23:01 34.70418 -80.73822 36921 ft 453 kts
2026-04-25 23:02 34.76625 -80.72685 36904 ft 454 kts
2026-04-25 23:02 34.82886 -80.71536 36912 ft 453 kts
2026-04-25 23:03 34.89132 -80.70388 36900 ft 454 kts
2026-04-25 23:03 34.95357 -80.69242 36907 ft 455 kts
2026-04-25 23:04 35.00575 -80.68280 36912 ft 455 kts
2026-04-25 23:04 35.07897 -80.66929 36931 ft 455 kts
2026-04-25 23:05 35.14144 -80.65774 36909 ft 456 kts
2026-04-25 23:05 35.20423 -80.64611 36906 ft 456 kts
2026-04-25 23:06 35.26695 -80.63447 36945 ft 456 kts
2026-04-25 23:06 35.32934 -80.62288 36949 ft 456 kts
2026-04-25 23:07 35.39210 -80.61119 36952 ft 456 kts
2026-04-25 23:07 35.45492 -80.59949 36957 ft 456 kts
2026-04-25 23:08 35.51777 -80.58775 36926 ft 456 kts
2026-04-25 23:08 35.58022 -80.57608 36937 ft 456 kts
2026-04-25 23:09 35.64321 -80.56428 36934 ft 456 kts
2026-04-25 23:09 35.70596 -80.55251 36936 ft 456 kts
2026-04-25 23:10 35.76879 -80.54070 36928 ft 456 kts
2026-04-25 23:10 35.83127 -80.52894 36919 ft 456 kts
2026-04-25 23:11 35.89412 -80.51710 36914 ft 457 kts
2026-04-25 23:11 35.95707 -80.50522 36908 ft 456 kts
2026-04-25 23:12 36.01997 -80.49332 36894 ft 456 kts
2026-04-25 23:12 36.08234 -80.48151 36883 ft 456 kts
2026-04-25 23:13 36.14512 -80.46960 36887 ft 456 kts
2026-04-25 23:13 36.20801 -80.45766 36905 ft 456 kts
2026-04-25 23:14 36.27085 -80.44569 36919 ft 456 kts
2026-04-25 23:14 36.33323 -80.43380 36938 ft 456 kts
2026-04-25 23:15 36.39604 -80.42181 36947 ft 456 kts
2026-04-25 23:15 36.45879 -80.40949 36952 ft 456 kts
2026-04-25 23:16 36.52155 -80.39657 36942 ft 457 kts
2026-04-25 23:16 36.58383 -80.38381 36933 ft 456 kts
2026-04-25 23:17 36.64670 -80.37096 36920 ft 457 kts
2026-04-25 23:17 36.70951 -80.35813 36905 ft 457 kts
2026-04-25 23:18 36.77239 -80.34607 36902 ft 456 kts
2026-04-25 23:18 36.83518 -80.33781 36892 ft 456 kts
2026-04-25 23:19 36.89847 -80.32938 36899 ft 457 kts
2026-04-25 23:19 36.96169 -80.32048 36919 ft 458 kts
2026-04-25 23:20 37.01445 -80.31295 36938 ft 459 kts
2026-04-25 23:20 37.07788 -80.30390 36951 ft 459 kts
2026-04-25 23:21 37.14155 -80.29480 36974 ft 460 kts
2026-04-25 23:21 37.20517 -80.28570 36967 ft 460 kts
2026-04-25 23:22 37.26850 -80.27661 36964 ft 461 kts
2026-04-25 23:23 37.36431 -80.26285 36946 ft 462 kts
2026-04-25 23:23 37.42819 -80.25366 36913 ft 462 kts
2026-04-25 23:24 37.49217 -80.24443 36913 ft 463 kts
2026-04-25 23:24 37.55603 -80.23520 36909 ft 464 kts
2026-04-25 23:25 37.62010 -80.22593 36923 ft 464 kts
2026-04-25 23:25 37.68448 -80.21653 36932 ft 465 kts
2026-04-25 23:26 37.74881 -80.20692 36934 ft 466 kts
2026-04-25 23:26 37.81324 -80.19729 36934 ft 466 kts
2026-04-25 23:27 37.87733 -80.18770 36934 ft 467 kts
2026-04-25 23:27 37.94190 -80.17803 36890 ft 468 kts
2026-04-25 23:27 37.97427 -80.17318 36634 ft 468 kts
2026-04-25 23:28 38.00663 -80.16832 36383 ft 469 kts
2026-04-25 23:28 38.03919 -80.16344 36125 ft 471 kts
2026-04-25 23:28 38.07182 -80.15854 35879 ft 473 kts
2026-04-25 23:28 38.10461 -80.15361 35625 ft 474 kts
2026-04-25 23:29 38.13751 -80.14866 35376 ft 476 kts
2026-04-25 23:29 38.17046 -80.14369 35135 ft 477 kts
2026-04-25 23:29 38.20349 -80.13871 34898 ft 479 kts
2026-04-25 23:29 38.23663 -80.13371 34648 ft 480 kts
2026-04-25 23:30 38.26956 -80.12865 34506 ft 490 kts
2026-04-25 23:30 38.30399 -80.12348 34284 ft 504 kts
2026-04-25 23:30 38.33925 -80.11820 34042 ft 515 kts
2026-04-25 23:30 38.37493 -80.11364 33782 ft 512 kts 358°
2026-04-25 23:31 38.41053 -80.11186 33527 ft 511 kts 357°
2026-04-25 23:31 38.44618 -80.10995 33262 ft 512 kts 357°
2026-04-25 23:31 38.48146 -80.10798 33008 ft 512 kts 358°
2026-04-25 23:31 38.51709 -80.10599 32746 ft 513 kts 358°
2026-04-25 23:32 38.55288 -80.10402 32490 ft 514 kts 358°
2026-04-25 23:32 38.58855 -80.10205 32232 ft 514 kts 358°
2026-04-25 23:32 38.62438 -80.10008 31987 ft 515 kts 358°
2026-04-25 23:32 38.65978 -80.09814 31739 ft 515 kts 358°
2026-04-25 23:33 38.69568 -80.09616 31491 ft 515 kts 358°
2026-04-25 23:33 38.73130 -80.09419 31250 ft 513 kts 358°
2026-04-25 23:33 38.76699 -80.09221 31007 ft 511 kts 358°
2026-04-25 23:33 38.80245 -80.09025 30769 ft 509 kts 358°
2026-04-25 23:34 38.83772 -80.08829 30528 ft 506 kts 358°
2026-04-25 23:34 38.87278 -80.08632 30289 ft 504 kts 358°
2026-04-25 23:34 38.90769 -80.08083 30066 ft 507 kts
2026-04-25 23:34 38.94190 -80.06898 29796 ft 510 kts 15°
2026-04-25 23:35 38.97459 -80.05128 29518 ft 511 kts 23°
2026-04-25 23:35 39.00657 -80.03142 29245 ft 508 kts 22°
2026-04-25 23:35 39.03850 -80.01191 28964 ft 505 kts 22°
2026-04-25 23:35 39.07014 -79.99267 28688 ft 502 kts 21°
2026-04-25 23:36 39.10120 -79.97377 28424 ft 499 kts 21°
2026-04-25 23:36 39.13247 -79.95470 28156 ft 496 kts 21°
2026-04-25 23:36 39.16363 -79.93566 27894 ft 493 kts 21°
2026-04-25 23:36 39.19454 -79.91674 27632 ft 491 kts 21°
2026-04-25 23:37 39.22538 -79.89784 27379 ft 488 kts 21°
2026-04-25 23:37 39.25594 -79.87909 27124 ft 485 kts 21°
2026-04-25 23:37 39.28634 -79.86042 26868 ft 481 kts 21°
2026-04-25 23:37 39.31646 -79.84190 26615 ft 478 kts 21°
2026-04-25 23:38 39.34646 -79.82345 26375 ft 475 kts 21°
2026-04-25 23:38 39.37615 -79.80518 26137 ft 472 kts 21°
2026-04-25 23:38 39.40537 -79.78718 25898 ft 469 kts 21°
2026-04-25 23:38 39.43477 -79.76904 25658 ft 466 kts 21°
2026-04-25 23:39 39.46392 -79.75103 25422 ft 463 kts 21°
2026-04-25 23:39 39.49292 -79.73311 25182 ft 460 kts 21°
2026-04-25 23:39 39.52169 -79.71531 24951 ft 458 kts 21°
2026-04-25 23:39 39.55039 -79.69755 24722 ft 455 kts 21°
2026-04-25 23:40 39.57885 -79.67991 24486 ft 452 kts 21°
2026-04-25 23:40 39.60713 -79.66237 24250 ft 449 kts 21°
2026-04-25 23:40 39.63529 -79.64489 24019 ft 447 kts 21°
2026-04-25 23:40 39.66328 -79.62751 23600 ft 446 kts 21°
2026-04-25 23:41 39.69091 -79.61035 22892 ft 447 kts 21°
2026-04-25 23:41 39.71896 -79.59293 22071 ft 446 kts 22°
2026-04-25 23:41 39.74674 -79.57563 21461 ft 438 kts 22°
2026-04-25 23:41 39.77414 -79.55854 20797 ft 433 kts 22°
2026-04-25 23:42 39.80111 -79.54171 20133 ft 427 kts 22°
2026-04-25 23:42 39.82743 -79.52528 19521 ft 420 kts 22°
2026-04-25 23:42 39.85354 -79.50895 18921 ft 412 kts 23°
2026-04-25 23:42 39.87915 -79.49293 18338 ft 405 kts 23°
2026-04-25 23:43 39.90433 -79.47717 17618 ft 398 kts 23°
2026-04-25 23:43 39.92915 -79.46162 16888 ft 392 kts 23°
2026-04-25 23:43 39.95356 -79.44653 16271 ft 382 kts 21°
2026-04-25 23:43 39.97874 -79.43787 15671 ft 370 kts
2026-04-25 23:44 40.00410 -79.43916 15078 ft 361 kts 349°
2026-04-25 23:44 40.02735 -79.45032 14531 ft 354 kts 332°
2026-04-25 23:44 40.04616 -79.47005 13993 ft 352 kts 314°
2026-04-25 23:44 40.06106 -79.49511 13415 ft 347 kts 309°
2026-04-25 23:45 40.07511 -79.52048 12863 ft 340 kts 309°
2026-04-25 23:45 40.08918 -79.54484 12306 ft 332 kts 310°
2026-04-25 23:45 40.10346 -79.56819 11782 ft 325 kts 311°
2026-04-25 23:45 40.11780 -79.59073 11255 ft 319 kts 312°
2026-04-25 23:46 40.13202 -79.61264 10748 ft 313 kts 312°
2026-04-25 23:46 40.14556 -79.63406 10371 ft 304 kts 310°
2026-04-25 23:46 40.15843 -79.65505 10223 ft 287 kts 310°
2026-04-25 23:46 40.17058 -79.67497 10068 ft 272 kts 310°
2026-04-25 23:47 40.18245 -79.69434 9988 ft 276 kts 310°
2026-04-25 23:47 40.19391 -79.71447 9920 ft 276 kts 304°
2026-04-25 23:47 40.20279 -79.73684 9654 ft 278 kts 295°
2026-04-25 23:47 40.21035 -79.76000 9348 ft 275 kts 296°
2026-04-25 23:48 40.21794 -79.78293 9056 ft 273 kts 296°
2026-04-25 23:48 40.22780 -79.80345 8754 ft 268 kts 315°
2026-04-25 23:48 40.24321 -79.81676 8466 ft 266 kts 340°
2026-04-25 23:48 40.26132 -79.82128 8170 ft 265 kts 353°
2026-04-25 23:49 40.27966 -79.82409 7868 ft 264 kts 353°
2026-04-25 23:49 40.29785 -79.82711 7587 ft 262 kts 352°
2026-04-25 23:49 40.31560 -79.83035 7299 ft 260 kts 351°
2026-04-25 23:49 40.33346 -79.83380 7020 ft 259 kts 351°
2026-04-25 23:50 40.35130 -79.83734 6731 ft 257 kts 351°
2026-04-25 23:50 40.36899 -79.84119 6439 ft 256 kts 347°
2026-04-25 23:50 40.38602 -79.84748 6150 ft 254 kts 343°
2026-04-25 23:50 40.40293 -79.85428 5866 ft 252 kts 344°
2026-04-25 23:51 40.41980 -79.86081 5595 ft 254 kts 344°
2026-04-25 23:51 40.43682 -79.86721 5312 ft 254 kts 345°
2026-04-25 23:51 40.45358 -79.87366 5023 ft 256 kts 342°
2026-04-25 23:51 40.46862 -79.88583 4744 ft 258 kts 317°
2026-04-25 23:52 40.47821 -79.90591 4469 ft 263 kts 291°
2026-04-25 23:52 40.48063 -79.92972 4264 ft 265 kts 274°
2026-04-25 23:52 40.48042 -79.95390 4090 ft 260 kts 271°
2026-04-25 23:52 40.48001 -79.97688 4008 ft 241 kts 272°
2026-04-25 23:53 40.48018 -79.99798 3975 ft 220 kts 275°
2026-04-25 23:53 40.48048 -80.01727 3979 ft 202 kts 276°
2026-04-25 23:53 40.48101 -80.03501 3836 ft 193 kts 276°
2026-04-25 23:53 40.48146 -80.05258 3580 ft 190 kts 276°
2026-04-25 23:54 40.48189 -80.06944 3317 ft 179 kts 276°
2026-04-25 23:54 40.48230 -80.08525 3068 ft 167 kts 276°
2026-04-25 23:54 40.48268 -80.09996 2848 ft 155 kts 278°
2026-04-25 23:54 40.48308 -80.11350 2633 ft 143 kts 278°
2026-04-25 23:55 40.48346 -80.12707 2450 ft 150 kts 276°
2026-04-25 23:55 40.48377 -80.14034 2247 ft 145 kts 276°
2026-04-25 23:55 40.48416 -80.15414 2036 ft 150 kts 276°
2026-04-25 23:55 40.48445 -80.16709 1827 ft 141 kts 276°
2026-04-25 23:56 40.48484 -80.18043 1626 ft 147 kts 278°
2026-04-25 23:56 40.48519 -80.19390 1421 ft 149 kts 276°
2026-04-25 23:56 40.48541 -80.20696 1209 ft 137 kts 279°
2026-04-25 23:56 40.48568 -80.21869 1140 ft 120 kts 276°
2026-04-25 23:57 40.48612 -80.22641 1145 ft 42 kts 272°
2026-04-25 23:57 40.48623 -80.22990 1146 ft 34 kts 283°
2026-04-25 23:57 40.48708 -80.23224 1140 ft 0 kts 302°
2026-04-25 23:58 40.48730 -80.23271 1143 ft 14 kts 302°
2026-04-25 23:58 40.48776 -80.23380 1144 ft 13 kts 290°
2026-04-25 23:58 40.48793 -80.23512 1143 ft 15 kts 276°
2026-04-25 23:59 40.48799 -80.23661 1147 ft 18 kts 273°
2026-04-25 23:59 40.48805 -80.23794 1147 ft 15 kts 282°
2026-04-25 23:59 40.48897 -80.23855 1157 ft 18 kts 356°
2026-04-25 23:59 40.49014 -80.23861 1154 ft 14 kts 355°
2026-04-26 00:00 40.49102 -80.23893 1155 ft 14 kts 345°
2026-04-26 00:00 40.49189 -80.23936 1157 ft 12 kts 308°
2026-04-26 00:00 40.49205 -80.24058 1153 ft 15 kts 275°
2026-04-26 00:00 40.49223 -80.24114 1154 ft 4 kts 326°
2026-04-26 00:01 40.49242 -80.24119 1157 ft 0 kts 344°
2026-04-26 00:01 40.49252 -80.24123 1156 ft 4 kts 341°
2026-04-26 00:01 40.49261 -80.24131 1157 ft 0 kts 332°